Starlink 32421

operational
NORAD ID: 61628 Int'l Des: 2024-191 Owner: SPXS Country: US Constellation: starlink
LEOCIRCULAR

Über Starlink 32421

Beschreibung wird geladen...

Live-Position

3D-Globus wird geladen...

Nächste Überflüge

Höhenverlauf

Altitude vs Time

uPlot chart will show altitude changes over time

Zweizeiliger Elementsatz

1 61628U 24191H 26034.22146880 .00003687 00000-0 14333-3 0 9997
2 61628 42.9989 349.2725 0001520 206.5737 153.5037 15.27602097 72266
Epoch: 3. Feb. 2026 • Age: 12 hours

Aktueller Status

Höhe 481.5 km
Geschwindigkeit 7.63 km/s
Subsatellitenpunkt 3.54°N, 132.92°E
Startdatum 23. Okt. 2024
Alter 1.2 years
Typ internet

Technische Details

Klassifizierung Payload
Masse 730.00 kg
Trockenmasse 700.00 kg
Gesamtmasse 730.00 kg
Länge 0.30 m
Durchmesser 4.10 m
Spannweite 29.00 m
Form Box + pan
Hersteller SPXS
Bus-Typ Starlink V2M
Phasenstatus In Orbit
Besitzer/Staat SPXS/US

Große Konstellationen

Loading constellations...